GW3691 Weather Reports


Display with metric or nautical units.
time (UTC)temp
F
wind
direction
speed
MPH
gust
MPH
rain 1hr
in
rain 24hr
in
rain mn
in
humidity
%
barometer
mb
20260507201720 98 156 4.0 7.0 0.00 0.00 0.00 33 1015.9
20260507201217 99 111 3.0 3.0 0.00 0.00 0.00 33 1015.7
20260507200714 97 180 1.0 1.0 0.00 0.00 0.00 35 1016.0
20260507200210 98 188 2.0 2.0 0.00 0.00 0.00 35 1016.0
20260507195706 98 47 3.0 3.0 0.00 0.00 0.00 34 1016.1
20260507195203 98 328 2.0 3.0 0.00 0.00 0.00 37 1016.1
20260507194700 97 79 3.0 3.0 0.00 0.00 0.00 39 1016.1
20260507194156 96 191 2.0 2.0 0.00 0.00 0.00 39 1015.9
20260507193653 97 197 3.0 3.0 0.00 0.00 0.00 40 1016.2
20260507193150 96 249 3.0 3.0 0.00 0.00 0.00 41 1016.3
20260507192646 97 189 1.0 1.0 0.00 0.00 0.00 41 1016.2
20260507192143 97 151 0.0 0.0 0.00 0.00 0.00 40 1016.3
20260507191639 96 237 2.0 3.0 0.00 0.00 0.00 41 1016.2
20260507191136 96 200 1.0 2.0 0.00 0.00 0.00 43 1016.3
20260507190633 96 174 6.0 10.0 0.00 0.00 0.00 41 1016.3
20260507190132 96 314 7.0 8.0 0.00 0.00 0.00 41 1016.5
20260507185630 95 210 4.0 7.0 0.00 0.00 0.00 42 1016.7
20260507185126 95 180 2.0 3.0 0.00 0.00 0.00 43 1016.8
20260507184624 95 190 4.0 6.0 0.00 0.00 0.00 43 1016.8
20260507184122 95 16 5.0 7.0 0.00 0.00 0.00 44 1017.1
20260507183618 95 216 3.0 3.0 0.00 0.00 0.00 43 1017.2
20260507183115 94 211 3.0 3.0 0.00 0.00 0.00 43 1017.3
20260507182611 94 207 3.0 3.0 0.00 0.00 0.00 44 1017.4
20260507182107 94 203 5.0 9.0 0.00 0.00 0.00 44 1017.5
20260507181604 94 185 1.0 2.0 0.00 0.00 0.00 45 1017.7
20260507181100 94 219 4.0 7.0 0.00 0.00 0.00 44 1017.7
20260507180558 93 234 3.0 5.0 0.00 0.00 0.00 45 1017.7
20260507180054 93 180 6.0 7.0 0.00 0.00 0.00 45 1017.7
20260507175550 93 219 3.0 3.0 0.00 0.00 0.00 48 1017.9
20260507175048 93 212 3.0 3.0 0.00 0.00 0.00 47 1018.3
20260507174544 93 178 0.0 0.0 0.00 0.00 0.00 48 1017.8
20260507174042 93 191 3.0 5.0 0.00 0.00 0.00 48 1018.1
20260507173539 94 214 3.0 3.0 0.00 0.00 0.00 47 1018.0
20260507173036 93 247 4.0 5.0 0.00 0.00 0.00 48 1017.9
20260507172532 93 214 2.0 5.0 0.00 0.00 0.00 49 1018.1
20260507172029 92 197 2.0 2.0 0.00 0.00 0.00 49 1018.3
20260507171524 92 175 0.0 0.0 0.00 0.00 0.00 50 1018.1
20260507171022 92 178 1.0 2.0 0.00 0.00 0.00 50 1018.2
20260507170519 93 224 4.0 6.0 0.00 0.00 0.00 49 1018.3
20260507170016 92 201 3.0 3.0 0.00 0.00 0.00 51 1018.4
20260507165511 92 195 3.0 3.0 0.00 0.00 0.00 53 1018.1
20260507165008 92 190 2.0 2.0 0.00 0.00 0.00 55 1018.0
20260507164504 91 160 2.0 3.0 0.00 0.00 0.00 55 1018.3
20260507164001 90 215 2.0 2.0 0.00 0.00 0.00 56 1018.3
20260507163458 90 169 1.0 1.0 0.00 0.00 0.00 58 1018.2
20260507162955 91 231 5.0 7.0 0.00 0.00 0.00 55 1018.5
20260507162451 90 187 3.0 5.0 0.00 0.00 0.00 58 1018.3
20260507161948 89 225 3.0 5.0 0.00 0.00 0.00 57 1018.6
20260507161444 89 167 0.0 1.0 0.00 0.00 0.00 58 1018.4
20260507160941 88 152 2.0 3.0 0.00 0.00 0.00 58 1018.6
20260507160437 88 195 3.0 6.0 0.00 0.00 0.00 58 1018.6
20260507155933 88 270 5.0 6.0 0.00 0.00 0.00 58 1018.6
20260507155429 88 310 3.0 3.0 0.00 0.00 0.00 59 1018.7
20260507154926 88 196 4.0 5.0 0.00 0.00 0.00 59 1018.5
20260507154423 87 248 4.0 8.0 0.00 0.00 0.00 60 1018.5
20260507153920 87 124 4.0 5.0 0.00 0.00 0.00 60 1018.4
20260507153417 87 188 4.0 5.0 0.00 0.00 0.00 60 1018.8
20260507152913 87 257 5.0 7.0 0.00 0.00 0.00 59 1018.5
20260507152409 87 175 5.0 7.0 0.00 0.00 0.00 59 1018.5
20260507151905 87 146 2.0 3.0 0.00 0.00 0.00 59 1018.8
20260507151402 86 160 2.0 3.0 0.00 0.00 0.00 59 1018.8
20260507150859 86 159 1.0 2.0 0.00 0.00 0.00 61 1018.6
20260507150356 86 158 1.0 2.0 0.00 0.00 0.00 61 1018.9
20260507145852 86 244 4.0 6.0 0.00 0.00 0.00 59 1018.8
20260507145348 85 266 5.0 6.0 0.00 0.00 0.00 58 1018.8
20260507144845 85 198 2.0 2.0 0.00 0.00 0.00 62 1019.0
20260507144343 85 169 5.0 6.0 0.00 0.00 0.00 61 1018.7
20260507143839 84 159 0.0 0.0 0.00 0.00 0.00 64 1018.9
20260507143336 84 160 0.0 0.0 0.00 0.00 0.00 64 1019.0
20260507142832 84 162 2.0 3.0 0.00 0.00 0.00 64 1019.2
20260507142329 84 236 3.0 5.0 0.00 0.00 0.00 64 1019.1
20260507141826 83 192 0.0 0.0 0.00 0.00 0.00 65 1019.1
20260507141317 83 129 0.0 0.0 0.00 0.00 0.00 66 1019.0
20260507140814 82 145 1.0 2.0 0.00 0.00 0.00 66 1019.2
20260507140311 82 157 1.0 1.0 0.00 0.00 0.00 67 1018.9
20260507135809 82 179 1.0 2.0 0.00 0.00 0.00 67 1019.0
20260507135306 81 195 1.0 1.0 0.00 0.00 0.00 67 1019.3
20260507134803 81 176 1.0 1.0 0.00 0.00 0.00 67 1019.1
20260507134258 81 211 3.0 5.0 0.00 0.00 0.00 68 1019.1
20260507133754 80 148 4.0 5.0 0.00 0.00 0.00 68 1019.1
20260507133250 80 179 1.0 2.0 0.00 0.00 0.00 69 1019.1
20260507132749 79 150 2.0 2.0 0.00 0.00 0.00 70 1019.2
20260507132245 79 179 0.0 1.0 0.00 0.00 0.00 69 1019.2
20260507131742 79 169 2.0 3.0 0.00 0.00 0.00 70 1019.2
20260507131239 78 179 1.0 2.0 0.00 0.00 0.00 71 1019.2
20260507130735 78 136 2.0 2.0 0.00 0.00 0.00 72 1019.2
20260507130233 77 181 1.0 1.0 0.00 0.00 0.00 74 1019.2
20260507125732 77 163 1.0 1.0 0.00 0.00 0.00 76 1019.2
20260507125229 76 160 2.0 3.0 0.00 0.00 0.00 76 1019.2
20260507124726 75 176 1.0 2.0 0.00 0.00 0.00 77 1019.2
20260507124222 75 172 3.0 6.0 0.00 0.00 0.00 77 1019.1
20260507123721 75 172 1.0 1.0 0.00 0.00 0.00 78 1019.2
20260507123218 75 167 2.0 2.0 0.00 0.00 0.00 78 1019.0
20260507122713 74 166 0.0 0.0 0.00 0.00 0.00 79 1019.1
20260507122209 73 171 1.0 1.0 0.00 0.00 0.00 79 1019.4
20260507121705 73 170 0.0 1.0 0.00 0.00 0.00 81 1019.4
20260507121201 72 174 0.0 0.0 0.00 0.00 0.00 81 1019.4
20260507120657 72 156 0.0 0.0 0.00 0.00 0.00 82 1019.5
20260507120155 72 169 0.0 0.0 0.00 0.00 0.00 81 1019.3
20260507115651 72 162 0.0 0.0 0.00 0.00 0.00 81 1019.3
20260507115146 72 175 0.0 0.0 0.00 0.00 0.00 82 1019.4
20260507114643 71 175 0.0 0.0 0.00 0.00 0.00 83 1019.3
20260507114140 71 167 0.0 0.0 0.00 0.00 0.00 83 1019.3
20260507113637 70 175 0.0 0.0 0.00 0.00 0.00 83 1019.3
20260507113134 70 169 0.0 0.0 0.00 0.00 0.00 84 1019.1
20260507112632 69 166 0.0 0.0 0.00 0.00 0.00 85 1019.1
20260507112128 69 162 0.0 0.0 0.00 0.00 0.00 86 1019.3
20260507111626 68 154 0.0 0.0 0.00 0.00 0.00 86 1019.3
20260507111122 68 154 0.0 0.0 0.00 0.00 0.00 87 1019.3
20260507110618 67 154 0.0 0.0 0.00 0.00 0.00 87 1019.3
20260507110115 67 154 0.0 0.0 0.00 0.00 0.00 87 1018.9
20260507105612 67 154 0.0 0.0 0.00 0.00 0.00 87 1019.3
20260507105108 67 153 0.0 0.0 0.00 0.00 0.00 87 1019.2
20260507104606 66 152 0.0 0.0 0.00 0.00 0.00 87 1019.0
20260507104102 66 155 0.0 0.0 0.00 0.00 0.00 87 1019.1
20260507103558 66 155 0.0 0.0 0.00 0.00 0.00 86 1019.1
20260507103055 66 158 0.0 0.0 0.00 0.00 0.00 86 1018.9
20260507102551 66 159 0.0 0.0 0.00 0.00 0.00 86 1018.8
20260507102047 66 167 0.0 0.0 0.00 0.00 0.00 86 1018.7
20260507101543 66 169 0.0 0.0 0.00 0.00 0.00 86 1018.7
20260507101039 66 169 0.0 0.0 0.00 0.00 0.00 87 1018.7
20260507100537 66 169 0.0 0.0 0.00 0.00 0.00 87 1018.7
20260507100035 66 171 0.0 0.0 0.00 0.00 0.00 87 1018.6
20260507095533 66 168 0.0 0.0 0.00 0.00 0.00 87 1018.5
20260507095029 65 171 0.0 0.0 0.00 0.00 0.00 88 1018.4
20260507094525 65 171 0.0 0.0 0.00 0.00 0.00 88 1018.6
20260507094022 65 171 0.0 0.0 0.00 0.00 0.00 88 1018.8
20260507093520 65 171 0.0 0.0 0.00 0.00 0.00 88 1018.7
20260507093019 64 171 0.0 0.0 0.00 0.00 0.00 88 1018.4
20260507092514 65 171 0.0 0.0 0.00 0.00 0.00 88 1018.4
20260507092011 65 171 0.0 0.0 0.00 0.00 0.00 88 1018.5
20260507091508 65 171 0.0 0.0 0.00 0.00 0.00 88 1018.4
20260507091003 65 171 0.0 0.0 0.00 0.00 0.00 87 1018.3
20260507090500 65 171 0.0 0.0 0.00 0.00 0.00 87 1018.3
20260507085956 65 171 0.0 0.0 0.00 0.00 0.00 87 1018.3
20260507085454 65 171 0.0 0.0 0.00 0.00 0.00 87 1018.2
20260507084950 65 171 0.0 0.0 0.00 0.00 0.00 86 1018.0
20260507084447 66 171 0.0 0.0 0.00 0.00 0.00 86 1018.3
20260507083944 66 171 0.0 0.0 0.00 0.00 0.00 85 1017.9
20260507083440 66 171 0.0 0.0 0.00 0.00 0.00 85 1018.3
20260507082936 66 171 0.0 0.0 0.00 0.00 0.00 84 1018.2
20260507082433 66 169 0.0 0.0 0.00 0.00 0.00 84 1018.0
20260507081929 67 169 0.0 0.0 0.00 0.00 0.00 84 1018.2
20260507081426 67 169 0.0 0.0 0.00 0.00 0.00 82 1018.4
20260507080923 68 169 0.0 0.0 0.00 0.00 0.00 82 1018.5
20260507080419 68 169 0.0 0.0 0.00 0.00 0.00 80 1018.6
20260507075914 68 169 0.0 0.0 0.00 0.00 0.00 79 1018.3
20260507075410 69 169 0.0 0.0 0.00 0.00 0.00 79 1018.6
20260507074907 69 169 0.0 0.0 0.00 0.00 0.00 78 1018.6
20260507074404 69 169 0.0 0.0 0.00 0.00 0.00 78 1018.3
20260507073902 69 169 0.0 0.0 0.00 0.00 0.00 77 1018.4
20260507073358 69 169 0.0 0.0 0.00 0.00 0.00 77 1018.3
20260507072855 69 178 0.0 0.0 0.00 0.00 0.00 77 1018.2
20260507072352 69 172 0.0 0.0 0.00 0.00 0.00 78 1018.0
20260507071850 69 171 0.0 0.0 0.00 0.00 0.00 78 1018.3
20260507071347 69 170 0.0 0.0 0.00 0.00 0.00 79 1018.4
20260507070843 69 170 0.0 0.0 0.00 0.00 0.00 78 1018.4
20260507070340 69 177 0.0 0.0 0.00 0.00 0.00 78 1018.4
20260507065837 69 177 0.0 0.0 0.00 0.00 0.00 78 1018.7
20260507065334 70 172 0.0 0.0 0.00 0.00 0.00 77 1018.7
20260507064831 70 166 0.0 0.0 0.00 0.00 0.00 77 1018.8
20260507064329 70 166 0.0 0.0 0.00 0.00 0.00 77 1018.8
20260507063827 70 177 0.0 0.0 0.00 0.00 0.00 77 1018.7
20260507063324 69 165 0.0 0.0 0.00 0.00 0.00 78 1019.1
20260507062820 69 177 0.0 0.0 0.00 0.00 0.00 79 1018.7
20260507062317 69 172 0.0 0.0 0.00 0.00 0.00 80 1018.9
20260507061815 69 168 0.0 0.0 0.00 0.00 0.00 81 1019.0
20260507061313 69 168 0.0 0.0 0.00 0.00 0.00 80 1019.3
20260507060811 69 167 0.0 0.0 0.00 0.00 0.00 80 1019.3
20260507060308 69 166 0.0 0.0 0.00 0.00 0.00 80 1019.5
20260507055804 69 167 0.0 0.0 0.00 0.00 0.00 79 1019.6
20260507055259 70 167 0.0 0.0 0.00 0.00 0.00 78 1019.8
20260507054756 70 167 0.0 0.0 0.00 0.00 0.00 78 1019.8
20260507054252 71 167 0.0 0.0 0.00 0.00 0.00 77 1019.6
20260507053750 71 166 0.0 0.0 0.00 0.00 0.00 75 1019.8
20260507053247 71 166 0.0 0.0 0.00 0.00 0.00 75 1019.8
20260507052746 72 176 0.0 0.0 0.00 0.00 0.00 74 1019.7
20260507052242 72 175 0.0 0.0 0.00 0.00 0.00 74 1019.5
20260507051741 72 166 0.0 0.0 0.00 0.00 0.00 73 1019.7
20260507051237 72 170 0.0 0.0 0.00 0.00 0.00 73 1019.8
20260507050733 72 168 0.0 1.0 0.00 0.00 0.00 73 1019.6
20260507050231 72 166 0.0 0.0 0.00 0.00 0.00 73 1019.7
20260507045727 72 167 0.0 0.0 0.00 0.00 0.00 73 1019.8
20260507045224 73 165 0.0 1.0 0.00 0.00 0.00 72 1019.8
20260507044721 72 165 0.0 0.0 0.00 0.00 0.00 72 1019.9
20260507044217 72 158 1.0 1.0 0.00 0.00 0.00 72 1019.6
20260507043714 72 172 0.0 0.0 0.00 0.00 0.00 72 1019.6
20260507043210 73 171 0.0 0.0 0.00 0.00 0.00 72 1019.7
20260507042707 73 165 0.0 1.0 0.00 0.00 0.00 72 1019.6
20260507042202 73 166 0.0 0.0 0.00 0.00 0.00 72 1019.9
20260507041659 73 161 0.0 0.0 0.00 0.00 0.00 72 1019.7
20260507041156 72 170 0.0 0.0 0.00 0.00 0.00 72 1019.8
20260507040653 72 168 0.0 0.0 0.00 0.00 0.00 73 1019.8
20260507040149 72 165 0.0 0.0 0.00 0.00 0.00 73 1019.9
20260507035645 72 175 0.0 0.0 0.00 0.00 0.00 73 1019.6
20260507035141 73 165 0.0 0.0 0.00 0.00 0.00 73 1019.9
20260507034638 73 164 0.0 0.0 0.00 0.00 0.00 73 1019.9
20260507034136 73 165 0.0 0.0 0.00 0.00 0.00 73 1019.8
20260507033634 73 164 0.0 0.0 0.00 0.00 0.00 73 1019.9
20260507033131 72 161 1.0 1.0 0.00 0.00 0.00 74 1019.9
20260507032629 72 171 0.0 0.0 0.00 0.00 0.00 74 1019.6
20260507032124 72 176 0.0 0.0 0.00 0.00 0.00 75 1019.7
20260507031621 72 167 0.0 1.0 0.00 0.00 0.00 76 1019.6
20260507031118 71 175 0.0 0.0 0.00 0.00 0.00 78 1019.6
20260507030615 71 171 0.0 0.0 0.00 0.00 0.00 80 1020.0
20260507030113 71 171 0.0 0.0 0.00 0.00 0.00 80 1019.9
20260507025609 71 171 0.0 0.0 0.00 0.00 0.00 79 1019.9
20260507025106 71 171 0.0 0.0 0.00 0.00 0.00 79 1019.6
20260507024604 71 171 0.0 0.0 0.00 0.00 0.00 77 1019.7
20260507024101 72 171 0.0 0.0 0.00 0.00 0.00 77 1019.9
20260507023556 72 171 0.0 0.0 0.00 0.00 0.00 76 1019.9
20260507023054 73 171 0.0 0.0 0.00 0.00 0.00 75 1020.0
20260507022551 73 171 0.0 0.0 0.00 0.00 0.00 75 1019.4
20260507022041 74 170 0.0 0.0 0.00 0.00 0.00 75 1019.8
20260507021537 75 170 0.0 0.0 0.00 0.00 0.00 73 1019.7
20260507021034 75 171 0.0 0.0 0.00 0.00 0.00 73 1019.7
20260507020532 75 164 0.0 0.0 0.00 0.00 0.00 73 1019.8
20260507020028 75 172 0.0 1.0 0.00 0.00 0.00 73 1019.7
20260507015526 75 160 1.0 2.0 0.00 0.00 0.00 72 1019.5
20260507015024 75 168 0.0 0.0 0.00 0.00 0.00 73 1019.6
20260507014520 75 174 1.0 1.0 0.00 0.00 0.00 73 1019.5
20260507014016 75 164 0.0 0.0 0.00 0.00 0.00 73 1019.6
20260507013512 75 154 0.0 0.0 0.00 0.00 0.00 73 1019.4
20260507013009 76 159 0.0 0.0 0.00 0.00 0.00 73 1019.2
20260507012506 76 155 0.0 0.0 0.00 0.00 0.00 73 1019.3
20260507012003 76 150 0.0 0.0 0.00 0.00 0.00 73 1019.3
20260507011500 76 162 0.0 0.0 0.00 0.00 0.00 73 1019.0
20260507010955 76 156 0.0 0.0 0.00 0.00 0.00 73 1019.1
20260507010450 76 164 0.0 0.0 0.00 0.00 0.00 73 1019.0
20260507005947 76 161 0.0 0.0 0.00 0.00 0.00 73 1019.0
20260507005444 76 177 0.0 0.0 0.00 0.00 0.00 73 1018.9
20260507004941 77 106 0.0 1.0 0.00 0.00 0.00 73 1019.1
20260507004437 77 168 0.0 0.0 0.00 0.00 0.00 72 1018.9
20260507003935 77 160 0.0 0.0 0.00 0.00 0.00 73 1018.9
20260507003430 77 157 0.0 0.0 0.00 0.00 0.00 73 1019.1
20260507002925 77 164 0.0 0.0 0.00 0.00 0.00 72 1018.7
20260507002422 77 166 0.0 0.0 0.00 0.00 0.00 73 1018.6
20260507001914 77 182 0.0 0.0 0.00 0.00 0.00 72 1018.9
20260507001411 78 131 0.0 0.0 0.00 0.00 0.00 72 1018.9
20260507000908 78 173 0.0 0.0 0.00 0.00 0.00 72 1018.6
20260507000405 78 155 0.0 0.0 0.00 0.00 0.00 72 1018.7
20260506235859 78 133 2.0 2.0 0.00 0.00 0.00 70 1018.8
20260506235357 79 151 0.0 0.0 0.00 0.00 0.00 68 1018.9
20260506234852 79 159 0.0 0.0 0.00 0.00 0.00 69 1018.7
20260506234350 80 160 0.0 0.0 0.00 0.00 0.00 68 1018.7
20260506233848 80 168 0.0 1.0 0.00 0.00 0.00 67 1018.4
20260506233343 80 162 0.0 0.0 0.00 0.00 0.00 66 1018.4
20260506232841 81 143 1.0 1.0 0.00 0.00 0.00 64 1018.5
20260506232336 81 167 0.0 1.0 0.00 0.00 0.00 65 1018.9
20260506231833 82 1 3.0 3.0 0.00 0.00 0.00 63 1018.9
20260506231331 83 167 0.0 0.0 0.00 0.00 0.00 63 1018.8
20260506230828 83 173 0.0 0.0 0.00 0.00 0.00 61 1018.9
20260506230325 84 151 0.0 0.0 0.00 0.00 0.00 61 1018.7
20260506225820 84 176 0.0 0.0 0.00 0.00 0.00 61 1018.8
20260506225318 84 164 1.0 1.0 0.00 0.00 0.00 59 1018.6
20260506224814 84 135 0.0 1.0 0.00 0.00 0.00 60 1018.5
20260506224312 84 162 0.0 0.0 0.00 0.00 0.00 60 1018.7
20260506223808 83 169 0.0 0.0 0.00 0.00 0.00 61 1018.3
20260506223303 83 154 1.0 1.0 0.00 0.00 0.00 60 1018.7
20260506222800 84 78 1.0 1.0 0.00 0.00 0.00 61 1018.9
20260506222255 85 143 1.0 2.0 0.00 0.00 0.00 62 1018.6
20260506221748 86 153 1.0 1.0 0.00 0.00 0.00 60 1018.9
20260506221245 85 133 1.0 1.0 0.00 0.00 0.00 61 1018.6
20260506220743 86 158 0.0 0.0 0.00 0.00 0.00 61 1018.9
20260506220232 86 164 1.0 1.0 0.00 0.00 0.00 60 1019.0
20260506215729 86 112 1.0 1.0 0.00 0.00 0.00 59 1018.9
20260506215224 86 133 0.0 1.0 0.00 0.00 0.00 58 1019.0
20260506214721 87 165 1.0 1.0 0.00 0.00 0.00 57 1019.0
20260506214218 87 206 1.0 2.0 0.00 0.00 0.00 59 1019.0
20260506213716 86 108 1.0 2.0 0.00 0.00 0.00 58 1019.0
20260506213213 86 138 0.0 1.0 0.00 0.00 0.00 60 1019.1
20260506212710 86 107 2.0 2.0 0.00 0.00 0.00 59 1019.0
20260506212206 86 67 3.0 5.0 0.00 0.00 0.00 62 1018.9
20260506211701 85 129 1.0 2.0 0.00 0.00 0.00 64 1019.2
20260506211158 86 149 0.0 0.0 0.00 0.00 0.00 63 1019.3
20260506210655 86 166 1.0 1.0 0.00 0.00 0.00 65 1019.1
20260506210151 87 166 2.0 2.0 0.00 0.00 0.00 65 1019.2
20260506205649 87 124 0.0 1.0 0.00 0.00 0.00 64 1019.1
20260506205144 87 162 1.0 1.0 0.00 0.00 0.00 65 1018.9
20260506204642 86 130 0.0 0.0 0.00 0.00 0.00 66 1019.1
20260506204138 86 170 1.0 1.0 0.00 0.00 0.00 65 1019.0
20260506203637 86 167 1.0 1.0 0.00 0.00 0.00 67 1019.3
20260506203133 86 144 2.0 2.0 0.00 0.00 0.00 64 1019.2
20260506202631 86 78 2.0 2.0 0.00 0.00 0.00 66 1019.4
20260506202127 87 22 2.0 2.0 0.00 0.00 0.00 64 1019.1